Regional Weather Roundup
Issued by NWS

Home | Current Version | Previous Version | Text Only | Print | Product List | Glossary On
Versions: 1 2 3 4 5 6 7 8 9 10 11 12 13 14 15 16 17 18 19 20 21 22 23 24 25 26 27 28 29 30 31 32 33 34 35 36 37 38 39 40 41 42 43 44 45 46 47 48 49 50
000
ASCA42 TJSJ 250410
RWRPR
PUERTO RICO/U.S. VIRGIN ISLANDS HOURLY WEATHER ROUNDUP
NATIONAL WEATHER SERVICE SAN JUAN PR
1200 AM AST SAT APR 25 2015

PRZ001-004-250500-
PUERTO RICO

CITY           SKY/WX    TMP DP  RH WIND       PRES   REMARKS
SAN JUAN LMM   MOCLDY    81  73  78 S3        29.97F
PONCE          CLEAR     75  72  88 NE6       29.93S
AGUADILLA      CLOUDY    75  73  94 SE3       29.99S
CEIBA          PTCLDY    79  72  78 SW5       30.00F
$$

PRZ006-007-250500-
U.S. VIRGIN ISLANDS

CITY           SKY/WX    TMP DP  RH WIND       PRES   REMARKS
CHARLOTTE AMA  PTCLDY    81  73  78 S3        29.98S
CHRISTIANSTED    N/A     73  70  88 N3        29.99F
$$

HOURLY WEATHER ROUNDUP FOR THE NEWS MEDIA

CITY           SKY/WX    TMP DP  RH WIND       PRES   REMARKS
ORLANDO        CLOUDY    71  64  78 E6        29.98F
NEW YORK       CLEAR     41  19  41 N21G26    29.93R
NEWARK         CLEAR     40  21  46 NW15      29.94S WCI  32
CHICAGO        CLOUDY    41  35  79 E9        29.92R
HARTFORD       CLEAR     38  24  57 W6        29.79F WCI  33
BOSTON         MOCLDY    42  23  46 NW10      29.79S
DALLAS         CLOUDY    64  62  93 E6        29.70S
PHILADELPHIA   PTCLDY    45  20  36 N16G23    29.97R
LOS ANGELES    MOCLDY    59  53  80 W6        30.01R
WASHINGTON DC  PTCLDY    41  29  62 CALM      29.95F



USA.gov is the U.S. government's official web portal to all federal, state and local government web resources and services.